Latham, NY

3:22 AM EDT on October 01, 2016 (GMT -0400)
Albany International

Weather History for KALB - September, 2011

Change the Weather History Date:

Friday, September 23, 2011

  Actual Average Record
Temperature  
Mean Temperature 65 °F 59 °F  
Max Temperature 71 °F 69 °F 97 °F (1895)
Min Temperature 59 °F 49 °F 32 °F (1947)
Degree Days  
Heating Degree Days 0 7  
Month to date heating degree days 71 84  
Since 1 July heating degree days 73 107  
Cooling Degree Days 0 1  
Month to date cooling degree days 64 47  
Year to date cooling degree days 771 590  
Growing Degree Days 14 (Base 50)    
Moisture  
Dew Point 64 °F    
Average Humidity 92    
Maximum Humidity 100    
Minimum Humidity 84    
Precipitation  
Precipitation 0.47 in 0.12 in 2.01 in (1882)
Month to date precipitation 5.39 2.47  
Year to date precipitation 43.29 28.62  
Sea Level Pressure  
Sea Level Pressure 30.09 in    
Wind  
Wind Speed 2 mph (NNE)    
Max Wind Speed 8 mph    
Max Gust Speed 9 mph    
Visibility 4 miles    
Events Fog , Rain    
T = Trace of Precipitation, MM = Missing Value Source: NWS Daily Summary

Daily Weather History Graph

Daily Weather History Graph

Search for Another Location

Airport or City:

Trip Planner

Search our weather history database for the weather conditions in past years. The results will help you decide how hot, cold, wet, or windy it might be!

Date:

Astronomy

Sep. 23, 2011 Rise Set
Actual Time 6:43 AM EDT 6:51 PM EDT
Civil Twilight 6:15 AM EDT 7:19 PM EDT
Nautical Twilight 5:41 AM EDT 7:52 PM EDT
Astronomical Twilight 5:08 AM EDT 8:26 PM EDT
Moon 2:01 AM EDT (9/23) 4:25 PM EDT (9/23)
Length of Visible Light 13h 04m
Length of Day
12h 07m
Waning Crescent, 19% of the Moon is Illuminated
Sep 23
Waning Crescent
Sep 27
New
Oct 3
First Quarter
Oct 11
Full
Oct 19
Last Quarter

Hourly Weather History & Observations

Time (EDT) Temp. Dew Point Humidity Pressure Visibility Wind Dir Wind Speed Gust Speed Precip Events Conditions
12:51 AM 64.9 °F 64.0 °F 97% 30.12 in 3.0 mi Calm Calm - N/A Fog Patches of Fog
1:51 AM 64.0 °F 63.0 °F 96% 30.13 in 7.0 mi Calm Calm - N/A Fog Patches of Fog
2:15 AM 60.8 °F 59.0 °F 94% 30.14 in 0.8 mi Calm Calm - N/A   Mostly Cloudy
2:29 AM 62.6 °F 60.8 °F 94% 30.13 in 1.5 mi Calm Calm - N/A   Mostly Cloudy
2:36 AM 60.8 °F 60.8 °F 100% 30.13 in 7.0 mi Calm Calm - N/A Fog Patches of Fog
2:51 AM 62.1 °F 61.0 °F 96% 30.13 in 7.0 mi Calm Calm - N/A Fog Patches of Fog
3:51 AM 61.0 °F 60.1 °F 97% 30.13 in 7.0 mi North 4.6 mph - N/A Fog Patches of Fog
4:05 AM 62.6 °F 60.8 °F 94% 30.13 in 7.0 mi North 3.5 mph - N/A Fog Patches of Fog
4:13 AM 62.6 °F 60.8 °F 94% 30.13 in 7.0 mi Calm Calm - N/A Fog Patches of Fog
4:51 AM 59.0 °F 59.0 °F 100% 30.14 in 3.0 mi Calm Calm - N/A Fog Patches of Fog
5:01 AM 60.8 °F 60.8 °F 100% 30.14 in 3.0 mi Calm Calm - N/A Fog Patches of Fog
5:51 AM 63.0 °F 62.1 °F 97% 30.14 in 3.0 mi Calm Calm - N/A   Overcast
6:33 AM 62.6 °F 62.6 °F 100% 30.14 in 2.5 mi Calm Calm - 0.00 in   Light Drizzle
6:51 AM 63.0 °F 62.1 °F 97% 30.14 in 2.5 mi Calm Calm - 0.00 in   Light Drizzle
7:51 AM 64.0 °F 63.0 °F 96% 30.15 in 2.5 mi Calm Calm - 0.00 in   Overcast
8:16 AM 64.4 °F 62.6 °F 94% 30.15 in 2.5 mi North 3.5 mph - N/A   Overcast
8:31 AM 64.4 °F 62.6 °F 94% 30.14 in 2.5 mi North 6.9 mph - N/A   Overcast
8:45 AM 64.4 °F 62.6 °F 94% 30.14 in 2.5 mi North 6.9 mph - N/A   Overcast
8:51 AM 64.0 °F 63.0 °F 96% 30.14 in 2.5 mi North 5.8 mph - N/A   Overcast
9:02 AM 64.4 °F 62.6 °F 94% 30.14 in 2.5 mi North 6.9 mph - N/A   Overcast
9:08 AM 64.4 °F 62.6 °F 94% 30.14 in 0.5 mi NNW 4.6 mph - N/A   Overcast
9:21 AM 64.4 °F 62.6 °F 94% 30.15 in 1.0 mi NNW 4.6 mph - N/A   Overcast
9:44 AM 66.2 °F 64.4 °F 94% 30.15 in 2.0 mi Calm Calm - N/A   Overcast
9:51 AM 66.2 °F 64.4 °F 94% 30.15 in 2.0 mi Calm Calm - N/A   Overcast
10:18 AM 66.2 °F 64.4 °F 94% 30.15 in 2.5 mi North 3.5 mph - N/A   Overcast
10:43 AM 68.0 °F 64.4 °F 88% 30.14 in 6.0 mi North 3.5 mph - N/A   Overcast
10:51 AM 68.0 °F 64.9 °F 90% 30.14 in 6.0 mi Calm Calm - N/A   Overcast
11:51 AM 69.1 °F 64.0 °F 84% 30.13 in 10.0 mi NE 3.5 mph - N/A   Overcast
12:51 PM 70.0 °F 64.0 °F 81% 30.11 in 10.0 mi Calm Calm - N/A   Overcast
1:51 PM 70.0 °F 64.9 °F 84% 30.09 in 10.0 mi North 3.5 mph - N/A   Overcast
2:29 PM 69.8 °F 64.4 °F 83% 30.08 in 10.0 mi Calm Calm - N/A   Overcast
2:51 PM 70.0 °F 64.9 °F 84% 30.07 in 10.0 mi Variable 3.5 mph - 0.00 in Rain Light Rain
3:33 PM 69.8 °F 66.2 °F 88% 30.06 in 7.0 mi NNE 3.5 mph - 0.01 in Rain Light Rain
3:51 PM 69.8 °F 66.2 °F 88% 30.05 in 6.0 mi NE 3.5 mph - N/A Rain Light Rain
4:18 PM 69.8 °F 66.2 °F 88% 30.04 in 6.0 mi NNE 3.5 mph - 0.02 in Rain Light Rain
4:51 PM 69.8 °F 66.2 °F 88% 30.03 in 5.0 mi NNE 3.5 mph - N/A Rain Light Rain
5:51 PM 69.1 °F 66.9 °F 93% 30.02 in 5.0 mi Calm Calm - 0.03 in Rain Light Rain
6:28 PM 69.8 °F 66.2 °F 88% 30.02 in 2.0 mi Calm Calm - 0.00 in Rain Light Rain
6:51 PM 69.1 °F 66.9 °F 93% 30.02 in 2.0 mi Calm Calm - 0.02 in Rain Light Rain
7:28 PM 68.0 °F 66.2 °F 94% 30.01 in 1.8 mi NE 3.5 mph - 0.07 in Rain Light Rain
7:51 PM 69.1 °F 66.9 °F 93% 30.01 in 2.0 mi NE 3.5 mph - 0.07 in Fog Light Drizzle
8:19 PM 69.8 °F 66.2 °F 88% 30.01 in 2.0 mi Calm Calm - 0.03 in Fog , Rain Light Rain
8:51 PM 68.0 °F 66.9 °F 96% 30.01 in 1.5 mi Calm Calm - 0.16 in Fog , Rain Rain
9:20 PM 68.0 °F 66.2 °F 94% 29.99 in 1.5 mi Calm Calm - 0.03 in Fog , Rain Light Rain
9:33 PM 68.0 °F 66.2 °F 94% 29.99 in 2.0 mi ENE 3.5 mph - 0.04 in Fog , Rain Light Rain
9:51 PM 68.0 °F 66.9 °F 96% 29.98 in 2.0 mi NE 4.6 mph - 0.04 in Fog Light Drizzle
10:51 PM 68.0 °F 66.9 °F 96% 29.96 in 2.0 mi North 4.6 mph - 0.05 in Fog , Rain Rain
11:51 PM 68.0 °F 66.9 °F 96% 29.94 in 2.0 mi ENE 5.8 mph - 0.07 in Fog , Rain Light Rain
11:56 PM 68.0 °F 66.2 °F 94% 29.95 in 5.0 mi Calm Calm - 0.00 in Fog , Rain Light Rain